owner,sensor,date,latitude,longitude,vertical_datum,direction_of_sea_water_velocity,sea_water_speed,upward_sea_water_velocity,qcFlag 
TABS,ioos:station:wmo:42050:1,1998-08-01T00:00:00Z,28.8425,-94.2433,2.0,107.5497477,11.87260713,-99999.0,'11111222,11111222,99999999' 
TABS,ioos:station:wmo:42050:1,1998-08-01T00:30:00Z,28.8425,-94.2433,2.0,93.63488186,14.03824063,-99999.0,'11111222,11111222,99999999' 
TABS,ioos:station:wmo:42050:1,1998-08-01T01:00:00Z,28.8425,-94.2433,2.0,87.43814507,13.42341611,-99999.0,'11111222,11111222,99999999' 
TABS,ioos:station:wmo:42050:1,1998-08-01T01:30:00Z,28.8425,-94.2433,2.0,77.73698997,14.0301283,-99999.0,'11111222,11111222,99999999' 
TABS,ioos:station:wmo:42050:1,1998-08-01T02:00:00Z,28.8425,-94.2433,2.0,75.36555119,14.1697036,-99999.0,'11111222,11111222,99999999' 
TABS,ioos:station:wmo:42050:1,1998-08-01T02:30:00Z,28.8425,-94.2433,2.0,74.0425537,13.02178175,-99999.0,'11111222,11111222,99999999' 
TABS,ioos:station:wmo:42050:1,1998-08-01T03:00:00Z,28.8425,-94.2433,2.0,72.45025227,11.87260713,-99999.0,'11111222,11111222,99999999' 
TABS,ioos:station:wmo:42050:1,1998-08-01T03:30:00Z,28.8425,-94.2433,2.0,72.01327213,12.53248978,-99999.0,'11111222,11111222,99999999' 
TABS,ioos:station:wmo:42050:1,1998-08-01T04:00:00Z,28.8425,-94.2433,2.0,58.24216967,14.72456791,-99999.0,'11111222,11111222,99999999' 
TABS,ioos:station:wmo:42050:1,1998-08-01T04:30:00Z,28.8425,-94.2433,2.0,57.98748916,16.8645664,-99999.0,'11111222,11111222,99999999' 
TABS,ioos:station:wmo:42050:1,1998-08-01T05:00:00Z,28.8425,-94.2433,2.0,56.58598255,17.85045938,-99999.0,'11111222,11111222,99999999' 
TABS,ioos:station:wmo:42050:1,1998-08-01T05:30:00Z,28.8425,-94.2433,2.0,58.70487542,17.78813087,-99999.0,'11111222,11111222,99999999' 
TABS,ioos:station:wmo:42050:1,1998-08-01T06:00:00Z,28.8425,-94.2433,2.0,59.89209239,17.2238091,-99999.0,'11111222,11111222,99999999' 
TABS,ioos:station:wmo:42050:1,1998-08-01T06:30:00Z,28.8425,-94.2433,2.0,57.36992266,17.69241645,-99999.0,'11111222,11111222,99999999' 
TABS,ioos:station:wmo:42050:1,1998-08-01T07:00:00Z,28.8425,-94.2433,2.0,61.54423201,16.26506994,-99999.0,'11111222,11111222,99999999' 
TABS,ioos:station:wmo:42050:1,1998-08-01T07:30:00Z,28.8425,-94.2433,2.0,67.21111038,16.16160883,-99999.0,'11111222,11111222,99999999' 
TABS,ioos:station:wmo:42050:1,1998-08-01T08:00:00Z,28.8425,-94.2433,2.0,64.4046613,15.85599256,-99999.0,'11111222,11111222,99999999' 
TABS,ioos:station:wmo:42050:1,1998-08-01T08:30:00Z,28.8425,-94.2433,2.0,69.32082932,16.87737243,-99999.0,'11111222,11111222,99999999' 
TABS,ioos:station:wmo:42050:1,1998-08-01T09:00:00Z,28.8425,-94.2433,2.0,67.4394735,17.09847069,-99999.0,'11111222,11111222,99999999' 
TABS,ioos:station:wmo:42050:1,1998-08-01T09:30:00Z,28.8425,-94.2433,2.0,66.15771953,16.94616476,-99999.0,'11111222,11111222,99999999' 
TABS,ioos:station:wmo:42050:1,1998-08-01T10:00:00Z,28.8425,-94.2433,2.0,65.15495384,17.73106314,-99999.0,'11111222,11111222,99999999' 
TABS,ioos:station:wmo:42050:1,1998-08-01T10:30:00Z,28.8425,-94.2433,2.0,64.25089668,18.52993794,-99999.0,'11111222,11111222,99999999' 
TABS,ioos:station:wmo:42050:1,1998-08-01T11:00:00Z,28.8425,-94.2433,2.0,67.81900293,17.37589422,-99999.0,'11111222,11111222,99999999' 
TABS,ioos:station:wmo:42050:1,1998-08-01T11:30:00Z,28.8425,-94.2433,2.0,67.06071828,16.83103087,-99999.0,'11111222,11111222,99999999' 
TABS,ioos:station:wmo:42050:1,1998-08-01T12:00:00Z,28.8425,-94.2433,2.0,68.40618337,15.3793888,-99999.0,'11111222,11111222,99999999' 
TABS,ioos:station:wmo:42050:1,1998-08-01T12:30:00Z,28.8425,-94.2433,2.0,65.74097228,16.67220741,-99999.0,'11111222,11111222,99999999' 
TABS,ioos:station:wmo:42050:1,1998-08-01T13:00:00Z,28.8425,-94.2433,2.0,63.4175321,14.65966234,-99999.0,'11111222,11111222,99999999' 
TABS,ioos:station:wmo:42050:1,1998-08-01T13:30:00Z,28.8425,-94.2433,2.0,43.91234393,11.17430087,-99999.0,'11111222,11111222,99999999' 
TABS,ioos:station:wmo:42050:1,1998-08-01T14:00:00Z,28.8425,-94.2433,2.0,32.72841526,9.913889247,-99999.0,'11133222,11111222,99999999' 
TABS,ioos:station:wmo:42050:1,1998-08-01T14:30:00Z,28.8425,-94.2433,2.0,73.7429105,14.89560002,-99999.0,'11111222,11111222,99999999' 
TABS,ioos:station:wmo:42050:1,1998-08-01T15:00:00Z,28.8425,-94.2433,2.0,85.38686423,11.06584836,-99999.0,'11111222,11111222,99999999' 
TABS,ioos:station:wmo:42050:1,1998-08-01T15:30:00Z,28.8425,-94.2433,2.0,96.98972057,14.70932017,-99999.0,'11111222,11111222,99999999' 
TABS,ioos:station:wmo:42050:1,1998-08-01T16:00:00Z,28.8425,-94.2433,2.0,93.05241895,16.71371293,-99999.0,'11111222,11111222,99999999' 
TABS,ioos:station:wmo:42050:1,1998-08-01T16:30:00Z,28.8425,-94.2433,2.0,105.3851524,12.3630417,-99999.0,'11111222,11111222,99999999' 
TABS,ioos:station:wmo:42050:1,1998-08-01T17:00:00Z,28.8425,-94.2433,2.0,114.4526799,10.79860176,-99999.0,'11111222,11111222,99999999' 
TABS,ioos:station:wmo:42050:1,1998-08-01T17:30:00Z,28.8425,-94.2433,2.0,138.9742361,9.079873347,-99999.0,'11133222,11111222,99999999' 
TABS,ioos:station:wmo:42050:1,1998-08-01T18:00:00Z,28.8425,-94.2433,2.0,172.4177582,9.018852477,-99999.0,'11133222,11111222,99999999' 
TABS,ioos:station:wmo:42050:1,1998-08-01T18:30:00Z,28.8425,-94.2433,2.0,179.9997895,16.39,-99999.0,'11111222,11111222,99999999' 
TABS,ioos:station:wmo:42050:1,1998-08-01T19:00:00Z,28.8425,-94.2433,2.0,179.1124731,19.37232304,-99999.0,'11111222,11111222,99999999' 
TABS,ioos:station:wmo:42050:1,1998-08-01T19:30:00Z,28.8425,-94.2433,2.0,177.8236745,15.80139551,-99999.0,'11111222,11111222,99999999' 
TABS,ioos:station:wmo:42050:1,1998-08-01T20:00:00Z,28.8425,-94.2433,2.0,169.3849974,14.5489656,-99999.0,'11111222,11111222,99999999' 
TABS,ioos:station:wmo:42050:1,1998-08-01T20:30:00Z,28.8425,-94.2433,2.0,191.5532195,13.38112477,-99999.0,'11111222,11111222,99999999' 
TABS,ioos:station:wmo:42050:1,1998-08-01T21:00:00Z,28.8425,-94.2433,2.0,204.7623636,12.79664018,-99999.0,'11111222,11111222,99999999' 
TABS,ioos:station:wmo:42050:1,1998-08-01T21:30:00Z,28.8425,-94.2433,2.0,209.9325579,11.34303751,-99999.0,'11111222,11111222,99999999' 
TABS,ioos:station:wmo:42050:1,1998-08-01T22:00:00Z,28.8425,-94.2433,2.0,216.1412045,9.5967755,-99999.0,'11133222,11111222,99999999' 
TABS,ioos:station:wmo:42050:1,1998-08-01T22:30:00Z,28.8425,-94.2433,2.0,224.9996843,9.277240969,-99999.0,'11133222,11111222,99999999' 
TABS,ioos:station:wmo:42050:1,1998-08-01T23:00:00Z,28.8425,-94.2433,2.0,235.1482225,8.347179164,-99999.0,'11133222,11111222,99999999' 
TABS,ioos:station:wmo:42050:1,1998-08-01T23:30:00Z,28.8425,-94.2433,2.0,252.9280658,8.107212838,-99999.0,'11133222,11111222,99999999' 
TABS,ioos:station:wmo:42050:1,1998-08-02T00:00:00Z,28.8425,-94.2433,2.0,267.8653253,8.055588123,-99999.0,'11133222,11111222,99999999' 
TABS,ioos:station:wmo:42050:1,1998-08-02T00:30:00Z,28.8425,-94.2433,2.0,257.8860848,8.52992966,-99999.0,'11133222,11111222,99999999' 
TABS,ioos:station:wmo:42050:1,1998-08-02T01:00:00Z,28.8425,-94.2433,2.0,297.9886115,10.80354109,-99999.0,'11111222,11111222,99999999' 
TABS,ioos:station:wmo:42050:1,1998-08-02T01:30:00Z,28.8425,-94.2433,2.0,306.3325603,12.57455367,-99999.0,'11111222,11111222,99999999' 
TABS,ioos:station:wmo:42050:1,1998-08-02T02:00:00Z,28.8425,-94.2433,2.0,315.9457026,12.85695143,-99999.0,'11111222,11111222,99999999' 
TABS,ioos:station:wmo:42050:1,1998-08-02T02:30:00Z,28.8425,-94.2433,2.0,315.8580594,13.69819331,-99999.0,'11111222,11111222,99999999' 
TABS,ioos:station:wmo:42050:1,1998-08-02T03:00:00Z,28.8425,-94.2433,2.0,321.4843548,18.65969989,-99999.0,'11111222,11111222,99999999' 
TABS,ioos:station:wmo:42050:1,1998-08-02T03:30:00Z,28.8425,-94.2433,2.0,331.0302714,19.07704642,-99999.0,'11111222,11111222,99999999' 
TABS,ioos:station:wmo:42050:1,1998-08-02T04:00:00Z,28.8425,-94.2433,2.0,344.5685232,17.92627401,-99999.0,'11111222,11111222,99999999' 
TABS,ioos:station:wmo:42050:1,1998-08-02T04:30:00Z,28.8425,-94.2433,2.0,355.69032,15.83477818,-99999.0,'11111222,11111222,99999999' 
TABS,ioos:station:wmo:42050:1,1998-08-02T05:00:00Z,28.8425,-94.2433,2.0,13.09602004,13.15205307,-99999.0,'11111222,11111222,99999999' 
TABS,ioos:station:wmo:42050:1,1998-08-02T05:30:00Z,28.8425,-94.2433,2.0,29.44677651,13.34383753,-99999.0,'11111222,11111222,99999999' 
TABS,ioos:station:wmo:42050:1,1998-08-02T06:00:00Z,28.8425,-94.2433,2.0,39.46464699,13.1214519,-99999.0,'11111222,11111222,99999999' 
TABS,ioos:station:wmo:42050:1,1998-08-02T06:30:00Z,28.8425,-94.2433,2.0,44.1641386,14.53966299,-99999.0,'11111222,11111222,99999999' 
TABS,ioos:station:wmo:42050:1,1998-08-02T07:00:00Z,28.8425,-94.2433,2.0,47.34330946,15.39244295,-99999.0,'11111222,11111222,99999999' 
TABS,ioos:station:wmo:42050:1,1998-08-02T07:30:00Z,28.8425,-94.2433,2.0,45.7302566,16.64664531,-99999.0,'11111222,11111222,99999999' 
TABS,ioos:station:wmo:42050:1,1998-08-02T08:00:00Z,28.8425,-94.2433,2.0,51.63465691,18.23821263,-99999.0,'11111222,11111222,99999999' 
TABS,ioos:station:wmo:42050:1,1998-08-02T08:30:00Z,28.8425,-94.2433,2.0,57.44957138,20.50022683,-99999.0,'11111222,11111222,99999999' 
TABS,ioos:station:wmo:42050:1,1998-08-02T09:00:00Z,28.8425,-94.2433,2.0,49.15278298,23.23997418,-99999.0,'11111222,11111222,99999999' 
TABS,ioos:station:wmo:42050:1,1998-08-02T09:30:00Z,28.8425,-94.2433,2.0,50.28483386,25.18104446,-99999.0,'11111222,11111222,99999999' 
TABS,ioos:station:wmo:42050:1,1998-08-02T10:00:00Z,28.8425,-94.2433,2.0,46.84471308,26.1411419,-99999.0,'11111222,11111222,99999999' 
TABS,ioos:station:wmo:42050:1,1998-08-02T10:30:00Z,28.8425,-94.2433,2.0,51.33306834,24.80820227,-99999.0,'11111222,11111222,99999999' 
TABS,ioos:station:wmo:42050:1,1998-08-02T11:00:00Z,28.8425,-94.2433,2.0,60.9499978,24.54827896,-99999.0,'11111222,11111222,99999999' 
TABS,ioos:station:wmo:42050:1,1998-08-02T11:30:00Z,28.8425,-94.2433,2.0,57.00693354,27.36261135,-99999.0,'11111222,11111222,99999999' 
TABS,ioos:station:wmo:42050:1,1998-08-02T12:00:00Z,28.8425,-94.2433,2.0,58.26149928,26.6327355,-99999.0,'11111222,11111222,99999999' 
TABS,ioos:station:wmo:42050:1,1998-08-02T12:30:00Z,28.8425,-94.2433,2.0,60.4121392,25.35651593,-99999.0,'11111222,11111222,99999999' 
TABS,ioos:station:wmo:42050:1,1998-08-02T13:00:00Z,28.8425,-94.2433,2.0,57.91481378,23.57013577,-99999.0,'11111222,11111222,99999999' 
TABS,ioos:station:wmo:42050:1,1998-08-02T13:30:00Z,28.8425,-94.2433,2.0,58.23954333,22.07571743,-99999.0,'11111222,11111222,99999999' 
TABS,ioos:station:wmo:42050:1,1998-08-02T14:00:00Z,28.8425,-94.2433,2.0,54.16373101,19.84722903,-99999.0,'11111222,11111222,99999999' 
TABS,ioos:station:wmo:42050:1,1998-08-02T14:30:00Z,28.8425,-94.2433,2.0,62.5195792,16.79501414,-99999.0,'11111222,11111222,99999999' 
TABS,ioos:station:wmo:42050:1,1998-08-02T15:00:00Z,28.8425,-94.2433,2.0,68.21337613,14.44152693,-99999.0,'11111222,11111222,99999999' 
TABS,ioos:station:wmo:42050:1,1998-08-02T15:30:00Z,28.8425,-94.2433,2.0,82.6930137,11.71513978,-99999.0,'11111222,11111222,99999999' 
TABS,ioos:station:wmo:42050:1,1998-08-02T16:00:00Z,28.8425,-94.2433,2.0,103.6102796,10.11401503,-99999.0,'11111222,11111222,99999999' 
TABS,ioos:station:wmo:42050:1,1998-08-02T16:30:00Z,28.8425,-94.2433,2.0,131.0255534,9.079873347,-99999.0,'11133222,11111222,99999999' 
TABS,ioos:station:wmo:42050:1,1998-08-02T17:00:00Z,28.8425,-94.2433,2.0,154.7410851,17.45928406,-99999.0,'11111222,11111222,99999999' 
TABS,ioos:station:wmo:42050:1,1998-08-02T17:30:00Z,28.8425,-94.2433,2.0,159.4400304,17.82536676,-99999.0,'11111222,11111222,99999999' 
TABS,ioos:station:wmo:42050:1,1998-08-02T18:00:00Z,28.8425,-94.2433,2.0,167.5578771,20.74725283,-99999.0,'11111222,11111222,99999999' 
TABS,ioos:station:wmo:42050:1,1998-08-02T18:30:00Z,28.8425,-94.2433,2.0,176.1339879,22.10028507,-99999.0,'11111222,11111222,99999999' 
TABS,ioos:station:wmo:42050:1,1998-08-02T19:00:00Z,28.8425,-94.2433,2.0,180.7393652,23.24193624,-99999.0,'11111222,11111222,99999999' 
TABS,ioos:station:wmo:42050:1,1998-08-02T19:30:00Z,28.8425,-94.2433,2.0,179.1988774,21.46209682,-99999.0,'11111222,11111222,99999999' 
TABS,ioos:station:wmo:42050:1,1998-08-02T20:00:00Z,28.8425,-94.2433,2.0,179.0985166,19.07235958,-99999.0,'11111222,11111222,99999999' 
TABS,ioos:station:wmo:42050:1,1998-08-02T20:30:00Z,28.8425,-94.2433,2.0,187.4264146,20.73393354,-99999.0,'11111222,11111222,99999999' 
TABS,ioos:station:wmo:42050:1,1998-08-02T21:00:00Z,28.8425,-94.2433,2.0,192.7033366,21.69097739,-99999.0,'11111222,11111222,99999999' 
TABS,ioos:station:wmo:42050:1,1998-08-02T21:30:00Z,28.8425,-94.2433,2.0,191.7944001,20.40073038,-99999.0,'11111222,11111222,99999999' 
TABS,ioos:station:wmo:42050:1,1998-08-02T22:00:00Z,28.8425,-94.2433,2.0,192.9183962,18.65211248,-99999.0,'11111222,11111222,99999999' 
TABS,ioos:station:wmo:42050:1,1998-08-02T22:30:00Z,28.8425,-94.2433,2.0,200.6789602,16.87737243,-99999.0,'11111222,11111222,99999999' 
TABS,ioos:station:wmo:42050:1,1998-08-02T23:00:00Z,28.8425,-94.2433,2.0,196.512599,16.78216315,-99999.0,'11111222,11111222,99999999' 
TABS,ioos:station:wmo:42050:1,1998-08-02T23:30:00Z,28.8425,-94.2433,2.0,226.9216358,12.65018577,-99999.0,'11111222,11111222,99999999' 
TABS,ioos:station:wmo:42050:1,1998-08-03T00:00:00Z,28.8425,-94.2433,2.0,253.2827363,12.44599534,-99999.0,'11111222,11111222,99999999' 
TABS,ioos:station:wmo:42050:1,1998-08-03T00:30:00Z,28.8425,-94.2433,2.0,252.1851796,8.760022831,-99999.0,'11133222,11111222,99999999' 
TABS,ioos:station:wmo:42050:1,1998-08-03T01:00:00Z,28.8425,-94.2433,2.0,270.0004209,2.98,-99999.0,'11133222,11111222,99999999' 
TABS,ioos:station:wmo:42050:1,1998-08-03T01:30:00Z,28.8425,-94.2433,2.0,323.2075129,1.486001346,-99999.0,'11133222,11111222,99999999' 
TABS,ioos:station:wmo:42050:1,1998-08-03T02:00:00Z,28.8425,-94.2433,2.0,7.184461051,2.39883305,-99999.0,'11133222,11111222,99999999' 
TABS,ioos:station:wmo:42050:1,1998-08-03T02:30:00Z,28.8425,-94.2433,2.0,36.81877356,4.472001789,-99999.0,'11133222,11111222,99999999' 
TABS,ioos:station:wmo:42050:1,1998-08-03T03:00:00Z,28.8425,-94.2433,2.0,52.64510062,6.378228594,-99999.0,'11133222,11111222,99999999' 
TABS,ioos:station:wmo:42050:1,1998-08-03T03:30:00Z,28.8425,-94.2433,2.0,59.46205816,7.616462433,-99999.0,'11133222,11111222,99999999' 
TABS,ioos:station:wmo:42050:1,1998-08-03T04:00:00Z,28.8425,-94.2433,2.0,63.48307775,5.330787934,-99999.0,'11133222,11111222,99999999' 
TABS,ioos:station:wmo:42050:1,1998-08-03T04:30:00Z,28.8425,-94.2433,2.0,82.87500031,12.01276404,-99999.0,'11111222,11111222,99999999' 
TABS,ioos:station:wmo:42050:1,1998-08-03T05:00:00Z,28.8425,-94.2433,2.0,103.5102445,7.662023231,-99999.0,'11133222,11111222,99999999' 
TABS,ioos:station:wmo:42050:1,1998-08-03T05:30:00Z,28.8425,-94.2433,2.0,103.2215722,10.4058301,-99999.0,'11111222,11111222,99999999' 
TABS,ioos:station:wmo:42050:1,1998-08-03T06:00:00Z,28.8425,-94.2433,2.0,104.0236458,11.05962477,-99999.0,'11111222,11111222,99999999' 
TABS,ioos:station:wmo:42050:1,1998-08-03T06:30:00Z,28.8425,-94.2433,2.0,101.309906,15.19507815,-99999.0,'11111222,11111222,99999999' 
TABS,ioos:station:wmo:42050:1,1998-08-03T07:00:00Z,28.8425,-94.2433,2.0,99.80961475,15.72998411,-99999.0,'11111222,11111222,99999999' 
TABS,ioos:station:wmo:42050:1,1998-08-03T07:30:00Z,28.8425,-94.2433,2.0,102.9184811,14.67134622,-99999.0,'11111222,11111222,99999999' 
TABS,ioos:station:wmo:42050:1,1998-08-03T08:00:00Z,28.8425,-94.2433,2.0,111.3228245,13.11797622,-99999.0,'11111222,11111222,99999999' 
TABS,ioos:station:wmo:42050:1,1998-08-03T08:30:00Z,28.8425,-94.2433,2.0,115.3998145,13.19552955,-99999.0,'11111222,11111222,99999999' 
TABS,ioos:station:wmo:42050:1,1998-08-03T09:00:00Z,28.8425,-94.2433,2.0,113.0417214,12.95342812,-99999.0,'11111222,11111222,99999999' 
TABS,ioos:station:wmo:42050:1,1998-08-03T09:30:00Z,28.8425,-94.2433,2.0,111.6259706,16.98563216,-99999.0,'11111222,11111222,99999999' 
TABS,ioos:station:wmo:42050:1,1998-08-03T10:00:00Z,28.8425,-94.2433,2.0,112.7055079,13.88616938,-99999.0,'11111222,11111222,99999999' 
TABS,ioos:station:wmo:42050:1,1998-08-03T10:30:00Z,28.8425,-94.2433,2.0,114.5414301,15.07155267,-99999.0,'11111222,11111222,99999999' 
TABS,ioos:station:wmo:42050:1,1998-08-03T11:00:00Z,28.8425,-94.2433,2.0,111.3228245,13.11797622,-99999.0,'11111222,11111222,99999999' 
TABS,ioos:station:wmo:42050:1,1998-08-03T11:30:00Z,28.8425,-94.2433,2.0,122.2774731,13.38898428,-99999.0,'11111222,11111222,99999999' 
TABS,ioos:station:wmo:42050:1,1998-08-03T12:00:00Z,28.8425,-94.2433,2.0,119.5767076,12.6826062,-99999.0,'11111222,11111222,99999999' 
TABS,ioos:station:wmo:42050:1,1998-08-03T12:30:00Z,28.8425,-94.2433,2.0,121.3687634,14.31191462,-99999.0,'11111222,11111222,99999999' 
TABS,ioos:station:wmo:42050:1,1998-08-03T13:00:00Z,28.8425,-94.2433,2.0,132.9387898,17.49807132,-99999.0,'11111222,11111222,99999999' 
TABS,ioos:station:wmo:42050:1,1998-08-03T13:30:00Z,28.8425,-94.2433,2.0,134.2697434,16.64664531,-99999.0,'11111222,11111222,99999999' 
TABS,ioos:station:wmo:42050:1,1998-08-03T14:00:00Z,28.8425,-94.2433,2.0,131.9924251,16.03805786,-99999.0,'11111222,11111222,99999999' 
TABS,ioos:station:wmo:42050:1,1998-08-03T14:30:00Z,28.8425,-94.2433,2.0,131.0809367,15.4156187,-99999.0,'11111222,11111222,99999999' 
TABS,ioos:station:wmo:42050:1,1998-08-03T15:00:00Z,28.8425,-94.2433,2.0,133.5077628,16.02140131,-99999.0,'11111222,11111222,99999999' 
TABS,ioos:station:wmo:42050:1,1998-08-03T15:30:00Z,28.8425,-94.2433,2.0,140.2033153,16.29525391,-99999.0,'11111222,11111222,99999999' 
TABS,ioos:station:wmo:42050:1,1998-08-03T16:00:00Z,28.8425,-94.2433,2.0,144.8234803,16.03900558,-99999.0,'11111222,11111222,99999999' 
TABS,ioos:station:wmo:42050:1,1998-08-03T16:30:00Z,28.8425,-94.2433,2.0,146.6247282,14.63321222,-99999.0,'11111222,11111222,99999999' 
TABS,ioos:station:wmo:42050:1,1998-08-03T17:00:00Z,28.8425,-94.2433,2.0,157.7936169,15.76964172,-99999.0,'11111222,11111222,99999999' 
TABS,ioos:station:wmo:42050:1,1998-08-03T17:30:00Z,28.8425,-94.2433,2.0,162.3041415,14.70581518,-99999.0,'11111222,11111222,99999999' 
TABS,ioos:station:wmo:42050:1,1998-08-03T18:00:00Z,28.8425,-94.2433,2.0,164.5681023,17.92627401,-99999.0,'11111222,11111222,99999999' 
TABS,ioos:station:wmo:42050:1,1998-08-03T18:30:00Z,28.8425,-94.2433,2.0,167.7869391,18.29402361,-99999.0,'11111222,11111222,99999999' 
TABS,ioos:station:wmo:42050:1,1998-08-03T19:00:00Z,28.8425,-94.2433,2.0,176.3721557,18.8076846,-99999.0,'11111222,11111222,99999999' 
TABS,ioos:station:wmo:42050:1,1998-08-03T19:30:00Z,28.8425,-94.2433,2.0,179.1391285,19.97225325,-99999.0,'11111222,11111222,99999999' 
TABS,ioos:station:wmo:42050:1,1998-08-03T20:00:00Z,28.8425,-94.2433,2.0,183.4618545,19.70596356,-99999.0,'11111222,11111222,99999999' 
TABS,ioos:station:wmo:42050:1,1998-08-03T20:30:00Z,28.8425,-94.2433,2.0,189.3271123,20.23757149,-99999.0,'11111222,11111222,99999999' 
TABS,ioos:station:wmo:42050:1,1998-08-03T21:00:00Z,28.8425,-94.2433,2.0,211.7182596,19.26782292,-99999.0,'11111222,11111222,99999999' 
TABS,ioos:station:wmo:42050:1,1998-08-03T21:30:00Z,28.8425,-94.2433,2.0,218.6595074,19.08131023,-99999.0,'11111222,11111222,99999999' 
TABS,ioos:station:wmo:42050:1,1998-08-03T22:00:00Z,28.8425,-94.2433,2.0,227.7792063,21.72666795,-99999.0,'11111222,11111222,99999999' 
TABS,ioos:station:wmo:42050:1,1998-08-03T22:30:00Z,28.8425,-94.2433,2.0,237.6952912,23.97005841,-99999.0,'11111222,11111222,99999999' 
TABS,ioos:station:wmo:42050:1,1998-08-03T23:00:00Z,28.8425,-94.2433,2.0,241.6988895,21.99958636,-99999.0,'11111222,11111222,99999999' 
TABS,ioos:station:wmo:42050:1,1998-08-03T23:30:00Z,28.8425,-94.2433,2.0,239.9930124,24.43509771,-99999.0,'11111222,11111222,99999999' 
TABS,ioos:station:wmo:42050:1,1998-08-04T00:00:00Z,28.8425,-94.2433,2.0,258.07138,21.62698546,-99999.0,'11111222,11111222,99999999' 
TABS,ioos:station:wmo:42050:1,1998-08-04T00:30:00Z,28.8425,-94.2433,2.0,269.2786149,23.84188751,-99999.0,'11111222,11111222,99999999' 
TABS,ioos:station:wmo:42050:1,1998-08-04T01:00:00Z,28.8425,-94.2433,2.0,276.7967888,20.11132268,-99999.0,'11111222,11111222,99999999' 
TABS,ioos:station:wmo:42050:1,1998-08-04T01:30:00Z,28.8425,-94.2433,2.0,287.6965023,21.58117698,-99999.0,'11111222,11111222,99999999' 
TABS,ioos:station:wmo:42050:1,1998-08-04T02:00:00Z,28.8425,-94.2433,2.0,290.0564688,23.47349569,-99999.0,'11111222,11111222,99999999' 
TABS,ioos:station:wmo:42050:1,1998-08-04T02:30:00Z,28.8425,-94.2433,2.0,293.2840918,25.62710479,-99999.0,'11111222,11111222,99999999' 
TABS,ioos:station:wmo:42050:1,1998-08-04T03:00:00Z,28.8425,-94.2433,2.0,295.6697667,25.46298097,-99999.0,'11111222,11111222,99999999' 
TABS,ioos:station:wmo:42050:1,1998-08-04T03:30:00Z,28.8425,-94.2433,2.0,294.9425582,28.26629265,-99999.0,'11111222,11111222,99999999' 
TABS,ioos:station:wmo:42050:1,1998-08-04T04:00:00Z,28.8425,-94.2433,2.0,297.3378887,29.85422081,-99999.0,'11111222,11111222,99999999' 
TABS,ioos:station:wmo:42050:1,1998-08-04T04:30:00Z,28.8425,-94.2433,2.0,298.1170571,29.72824415,-99999.0,'11111222,11111222,99999999' 
TABS,ioos:station:wmo:42050:1,1998-08-04T05:00:00Z,28.8425,-94.2433,2.0,299.2912797,28.02280678,-99999.0,'11111222,11111222,99999999' 
TABS,ioos:station:wmo:42050:1,1998-08-04T05:30:00Z,28.8425,-94.2433,2.0,301.7812617,24.89212124,-99999.0,'11111222,11111222,99999999' 
TABS,ioos:station:wmo:42050:1,1998-08-04T06:00:00Z,28.8425,-94.2433,2.0,289.3656207,23.37231268,-99999.0,'11111222,11111222,99999999' 
TABS,ioos:station:wmo:42050:1,1998-08-04T06:30:00Z,28.8425,-94.2433,2.0,289.475989,20.54554453,-99999.0,'11111222,11111222,99999999' 
TABS,ioos:station:wmo:42050:1,1998-08-04T07:00:00Z,28.8425,-94.2433,2.0,279.6332783,16.0158203,-99999.0,'11111222,11111222,99999999' 
TABS,ioos:station:wmo:42050:1,1998-08-04T07:30:00Z,28.8425,-94.2433,2.0,273.4187168,14.92655687,-99999.0,'11111222,11111222,99999999' 
TABS,ioos:station:wmo:42050:1,1998-08-04T08:00:00Z,28.8425,-94.2433,2.0,260.9243215,15.08888333,-99999.0,'11111222,11111222,99999999' 
TABS,ioos:station:wmo:42050:1,1998-08-04T08:30:00Z,28.8425,-94.2433,2.0,253.5533066,13.66927211,-99999.0,'11111222,11111222,99999999' 
TABS,ioos:station:wmo:42050:1,1998-08-04T09:00:00Z,28.8425,-94.2433,2.0,246.9387104,17.48744121,-99999.0,'11111222,11111222,99999999' 
TABS,ioos:station:wmo:42050:1,1998-08-04T09:30:00Z,28.8425,-94.2433,2.0,249.6741703,17.15837113,-99999.0,'11111222,11111222,99999999' 
TABS,ioos:station:wmo:42050:1,1998-08-04T10:00:00Z,28.8425,-94.2433,2.0,253.3839448,17.73034123,-99999.0,'11111222,11111222,99999999' 
TABS,ioos:station:wmo:42050:1,1998-08-04T10:30:00Z,28.8425,-94.2433,2.0,253.4867697,16.78216315,-99999.0,'11111222,11111222,99999999' 
TABS,ioos:station:wmo:42050:1,1998-08-04T11:00:00Z,28.8425,-94.2433,2.0,260.7410413,14.79271442,-99999.0,'11111222,11111222,99999999' 
TABS,ioos:station:wmo:42050:1,1998-08-04T11:30:00Z,28.8425,-94.2433,2.0,264.7088564,16.15884278,-99999.0,'11111222,11111222,99999999' 
TABS,ioos:station:wmo:42050:1,1998-08-04T12:00:00Z,28.8425,-94.2433,2.0,265.2425804,14.34942856,-99999.0,'11111222,11111222,99999999' 
TABS,ioos:station:wmo:42050:1,1998-08-04T12:30:00Z,28.8425,-94.2433,2.0,276.4844601,13.19440033,-99999.0,'11111222,11111222,99999999' 
TABS,ioos:station:wmo:42050:1,1998-08-04T13:00:00Z,28.8425,-94.2433,2.0,277.4988796,11.41763986,-99999.0,'11111222,11111222,99999999' 
TABS,ioos:station:wmo:42050:1,1998-08-04T13:30:00Z,28.8425,-94.2433,2.0,283.2219931,10.4058301,-99999.0,'11111222,11111222,99999999' 
TABS,ioos:station:wmo:42050:1,1998-08-04T14:00:00Z,28.8425,-94.2433,2.0,280.1298243,8.47205406,-99999.0,'11133222,11111222,99999999' 
TABS,ioos:station:wmo:42050:1,1998-08-04T14:30:00Z,28.8425,-94.2433,2.0,286.9678263,7.161745597,-99999.0,'11133222,11111222,99999999' 
TABS,ioos:station:wmo:42050:1,1998-08-04T15:00:00Z,28.8425,-94.2433,2.0,296.56541,6.663482573,-99999.0,'11133222,11111222,99999999' 
TABS,ioos:station:wmo:42050:1,1998-08-04T15:30:00Z,28.8425,-94.2433,2.0,290.2674415,6.033547878,-99999.0,'11133222,11111222,99999999' 
TABS,ioos:station:wmo:42050:1,1998-08-04T16:00:00Z,28.8425,-94.2433,2.0,278.9366352,5.72954623,-99999.0,'11133222,11111222,99999999' 